Location: Falkner
(32.6954°N, 86.0502°W)
Time: 11:11:23
(UTC+00:00)

Cosmos 2227 Rocket - Pass Details

Date: 29 October 2020
Orbit: 838 x 846 km, 71.0° (Epoch: 04 December)

Event Time Altitude Azimuth Distance (km) Brightness Sun altitude
Rises 23:42:28 0° 345° (NNW) 3,401 5.4 -10.4°
Reaches altitude 10° 23:45:00 10° 351° (N) 2,465 4.6 -11.0°
Maximum altitude 23:50:29 50° 66° (ENE) 1,071 2.4 -12.1°
Drops below altitude 10° 23:55:56 10° 141° (SE) 2,456 4.3 -13.2°
Sets 23:58:27 0° 147° (SSE) 3,389 5.1 -13.8°
